Humboldt, Iowa, United States (50548)
Lat: 42.72N, Lon: 94.22W
Wx Zone: IAZ024
Local Info
Past Weather Observations for Tuesday, December 16, 2014

NOTE: This archive is for the closest National Weather Service station to Humboldt. Information may differ from the station used for current weather conditions.

Click here for Long-term Archive

Time Weather Temperature Dewpoint Humidity Pressure Winds Precip Visibility
23:55
Partly Cloudy
12°F / -11°C 7°F / -14°C 79% 30.3 in
(1026 mb)
NW 6.9 mph
(NW 11 kph)
- 10SM
23:35
Clear
12°F / -11°C 7°F / -14°C 79% 30.33 in
(1027 mb)
NW 5.8 mph
(NW 9 kph)
- 10SM
23:15
Clear
12°F / -11°C 7°F / -14°C 79% 30.33 in
(1027 mb)
NW 5.8 mph
(NW 9 kph)
- 10SM
22:55
Mostly Cloudy
14°F / -10°C 7°F / -14°C 73% 30.33 in
(1027 mb)
NW 5.8 mph
(NW 9 kph)
- 10SM
22:35
Overcast
16°F / -9°C 9°F / -13°C 73% 30.3 in
(1026 mb)
NNW 5.8 mph
(NNW 9 kph)
- 10SM
22:15
Overcast
16°F / -9°C 9°F / -13°C 73% 30.3 in
(1026 mb)
NW 8.1 mph
(NW 13 kph)
- 10SM
21:55
Overcast
16°F / -9°C 9°F / -13°C 73% 30.3 in
(1026 mb)
NW 5.8 mph
(NW 9 kph)
- 10SM
21:35
Overcast
16°F / -9°C 9°F / -13°C 73% 30.3 in
(1026 mb)
NNW 6.9 mph
(NNW 11 kph)
- 10SM
21:15
Overcast
16°F / -9°C 9°F / -13°C 73% 30.3 in
(1026 mb)
NNW 9.2 mph
(NNW 15 kph)
- 10SM
20:55
Overcast
14°F / -10°C 7°F / -14°C 73% 30.3 in
(1026 mb)
NNW 4.6 mph
(NNW 7 kph)
- 10SM
20:35
Mostly Cloudy
12°F / -11°C 7°F / -14°C 79% 30.3 in
(1026 mb)
NNW 6.9 mph
(NNW 11 kph)
- 10SM
20:15
Clear
12°F / -11°C 5°F / -15°C 73% 30.33 in
(1027 mb)
NNW 8.1 mph
(NNW 13 kph)
- 10SM
19:55
Partly Cloudy
12°F / -11°C 5°F / -15°C 73% 30.33 in
(1027 mb)
NNW 6.9 mph
(NNW 11 kph)
- 10SM
19:35
Mostly Cloudy
14°F / -10°C 5°F / -15°C 67% 30.33 in
(1027 mb)
NNW 10.4 mph
(NNW 17 kph)
- 10SM
19:15
Overcast
14°F / -10°C 7°F / -14°C 73% 30.3 in
(1026 mb)
NNW 9.2 mph
(NNW 15 kph)
- 10SM
18:55
Overcast
16°F / -9°C 7°F / -14°C 67% 30.3 in
(1026 mb)
NNW 9.2 mph
(NNW 15 kph)
- 10SM
18:35
Overcast
16°F / -9°C 9°F / -13°C 73% 30.3 in
(1026 mb)
NW 11.5 mph
(NW 19 kph)
- 10SM
18:15
Mostly Cloudy
16°F / -9°C 9°F / -13°C 73% 30.3 in
(1026 mb)
NW 8.1 mph
(NW 13 kph)
- 10SM
17:55
Mostly Cloudy
16°F / -9°C 9°F / -13°C 73% 30.3 in
(1026 mb)
NNW 9.2 mph
(NNW 15 kph)
- 10SM
17:35
Mostly Cloudy
18°F / -8°C 9°F / -13°C 68% 30.27 in
(1025 mb)
NNW 8.1 mph
(NNW 13 kph)
- 10SM
17:15
Mostly Cloudy
18°F / -8°C 9°F / -13°C 68% 30.27 in
(1025 mb)
NW 6.9 mph
(NW 11 kph)
- 10SM
16:55
Overcast
18°F / -8°C 10°F / -12°C 73% 30.27 in
(1025 mb)
NNW 8.1 mph
(NNW 13 kph)
- 10SM
16:35
Overcast
19°F / -7°C 10°F / -12°C 68% 30.24 in
(1024 mb)
NNW 10.4 mph
(NNW 17 kph)
- 10SM
16:15
Overcast
19°F / -7°C 10°F / -12°C 68% 30.24 in
(1024 mb)
NNW 6.9 mph
(NNW 11 kph)
- 10SM
15:55
Overcast
19°F / -7°C 12°F / -11°C 73% 30.24 in
(1024 mb)
NW 11.5 mph
(NW 19 kph)
- 10SM
15:35
Mostly Cloudy
19°F / -7°C 12°F / -11°C 73% 30.24 in
(1024 mb)
NW 8.1 mph
(NW 13 kph)
- 10SM
15:15
Mostly Cloudy
19°F / -7°C 12°F / -11°C 73% 30.24 in
(1024 mb)
NW 13.8 mph
(NW 22 kph)
- 10SM
14:55
Overcast
19°F / -7°C 12°F / -11°C 73% 30.24 in
(1024 mb)
NW 10.4 mph
(NW 17 kph)
- 10SM
14:35
Overcast
21°F / -6°C 12°F / -11°C 68% 30.21 in
(1023 mb)
NW 10.4 mph
(NW 17 kph)
- 10SM
14:15
Overcast
21°F / -6°C 12°F / -11°C 68% 30.21 in
(1023 mb)
NW 10.4 mph
(NW 17 kph)
- 10SM
13:55
Overcast
21°F / -6°C 12°F / -11°C 68% 30.21 in
(1023 mb)
NW 12.7 mph
(NW 20 kph)
- 10SM
13:35
Overcast
21°F / -6°C 14°F / -10°C 74% 30.21 in
(1023 mb)
NW 9.2 mph
(NW 15 kph)
- 10SM
13:15
Overcast
19°F / -7°C 12°F / -11°C 73% 30.21 in
(1023 mb)
NW 13.8 mph
(NW 22 kph)
- 10SM
12:55
Overcast
21°F / -6°C 12°F / -11°C 68% 30.21 in
(1023 mb)
NW 11.5 mph
(NW 19 kph)
- 10SM
12:35
Overcast
19°F / -7°C 10°F / -12°C 68% 30.21 in
(1023 mb)
NW 13.8 mph
(NW 22 kph)
- 10SM
12:15
Overcast
19°F / -7°C 12°F / -11°C 73% 30.21 in
(1023 mb)
NW 10.4 mph
(NW 17 kph)
- 10SM
11:55
Overcast
19°F / -7°C 12°F / -11°C 73% 30.21 in
(1023 mb)
NW 10.4 mph
(NW 17 kph)
- 10SM
11:35
Overcast
19°F / -7°C 10°F / -12°C 68% 30.21 in
(1023 mb)
NNW 9.2 mph
(NNW 15 kph)
- 10SM
11:15
Overcast
19°F / -7°C 10°F / -12°C 68% 30.21 in
(1023 mb)
NNW 11.5 mph
(NNW 19 kph)
- 10SM
10:55
Mostly Cloudy
19°F / -7°C 10°F / -12°C 68% 30.21 in
(1023 mb)
NW 11.5 mph
(NW 19 kph)
- 10SM
10:35
Mostly Cloudy
18°F / -8°C 10°F / -12°C 73% 30.21 in
(1023 mb)
NNW 13.8 mph
(NNW 22 kph)
- 10SM
10:15
Partly Cloudy
18°F / -8°C 9°F / -13°C 68% 30.18 in
(1022 mb)
NNW 12.7 mph
(NNW 20 kph)
- 10SM
09:55
Mostly Cloudy
18°F / -8°C 10°F / -12°C 73% 30.18 in
(1022 mb)
NNW 18.4 mph
(NNW 30 kph)
- 8SM
09:35
Overcast
18°F / -8°C 10°F / -12°C 73% 30.18 in
(1022 mb)
NW 12.7 mph
(NW 20 kph)
- 9SM
09:15
Mostly Cloudy
16°F / -9°C 9°F / -13°C 73% 30.18 in
(1022 mb)
NNW 11.5 mph
(NNW 19 kph)
- 10SM
08:55
Partly Cloudy
16°F / -9°C 9°F / -13°C 73% 30.15 in
(1021 mb)
NNW 12.7 mph
(NNW 20 kph)
- 10SM
08:35
Overcast
18°F / -8°C 9°F / -13°C 68% 30.15 in
(1021 mb)
NW 16.1 mph
(NW 26 kph)
- 7SM
08:15
Overcast
18°F / -8°C 10°F / -12°C 73% 30.12 in
(1020 mb)
NNW 12.7 mph
(NNW 20 kph)
- 10SM
07:55
Overcast
19°F / -7°C 10°F / -12°C 68% 30.12 in
(1020 mb)
NW 16.1 mph
(NW 26 kph)
- 10SM
07:35
Overcast
19°F / -7°C 12°F / -11°C 73% 30.12 in
(1020 mb)
NW 15 mph
(NW 24 kph)
- 10SM
07:15
Overcast
19°F / -7°C 12°F / -11°C 73% 30.09 in
(1019 mb)
NW 13.8 mph
(NW 22 kph)
- 10SM
06:55
Overcast
21°F / -6°C 12°F / -11°C 68% 30.09 in
(1019 mb)
NW 11.5 mph
(NW 19 kph)
- 10SM
06:35
Overcast
21°F / -6°C 14°F / -10°C 74% 30.06 in
(1018 mb)
NW 15 mph
(NW 24 kph)
- 10SM
06:15
Overcast
21°F / -6°C 14°F / -10°C 74% 30.06 in
(1018 mb)
NW 12.7 mph
(NW 20 kph)
- 8SM
05:55
Overcast
21°F / -6°C 14°F / -10°C 74% 30.04 in
(1017 mb)
NW 11.5 mph
(NW 19 kph)
- 10SM
05:35
Overcast
21°F / -6°C 16°F / -9°C 80% 30.04 in
(1017 mb)
NNW 12.7 mph
(NNW 20 kph)
- 10SM
05:15
Overcast
21°F / -6°C 16°F / -9°C 80% 30.04 in
(1017 mb)
NW 15 mph
(NW 24 kph)
- 10SM
04:55
Overcast
21°F / -6°C 16°F / -9°C 80% 30.01 in
(1016 mb)
NW 11.5 mph
(NW 19 kph)
- 10SM
04:35
Overcast
23°F / -5°C 16°F / -9°C 74% 30.01 in
(1016 mb)
NNW 18.4 mph
(NNW 30 kph)
- 10SM
04:15
Overcast
23°F / -5°C 18°F / -8°C 80% 30.01 in
(1016 mb)
NW 13.8 mph
(NW 22 kph)
- 4SM
03:55
Mostly Cloudy
23°F / -5°C 18°F / -8°C 80% 29.98 in
(1015 mb)
NNW 10.4 mph
(NNW 17 kph)
- 4SM
03:35
Overcast
25°F / -4°C 18°F / -8°C 74% 29.98 in
(1015 mb)
NNW 17.3 mph
(NNW 28 kph)
- 5SM
03:15
Overcast
25°F / -4°C 18°F / -8°C 74% 29.98 in
(1015 mb)
NW 10.4 mph
(NW 17 kph)
- 9SM
02:55
Overcast
25°F / -4°C 19°F / -7°C 80% 29.98 in
(1015 mb)
NNW 15 mph
(NNW 24 kph)
- 10SM
02:35
Overcast
25°F / -4°C 18°F / -8°C 74% 29.95 in
(1014 mb)
NNW 12.7 mph
(NNW 20 kph)
- 10SM
02:15
Overcast
25°F / -4°C 19°F / -7°C 80% 29.95 in
(1014 mb)
NNW 10.4 mph
(NNW 17 kph)
- 10SM
01:55
Overcast
25°F / -4°C 19°F / -7°C 80% 29.92 in
(1013 mb)
NNW 12.7 mph
(NNW 20 kph)
- 9SM
01:35
Overcast
25°F / -4°C 19°F / -7°C 80% 29.92 in
(1013 mb)
NNW 10.4 mph
(NNW 17 kph)
- 10SM
01:15
Overcast
27°F / -3°C 19°F / -7°C 74% 29.89 in
(1012 mb)
NNW 13.8 mph
(NNW 22 kph)
- 10SM
00:55
Overcast
27°F / -3°C 19°F / -7°C 74% 29.89 in
(1012 mb)
NNW 19.6 mph
(NNW 32 kph)
- 10SM
00:35
Overcast
27°F / -3°C 19°F / -7°C 74% 29.86 in
(1011 mb)
NNW 16.1 mph
(NNW 26 kph)
- 10SM
00:15
Overcast
27°F / -3°C 21°F / -6°C 80% 29.86 in
(1011 mb)
NNW 13.8 mph
(NNW 22 kph)
- 10SM
Time Weather Temperature Dewpoint Humidity Pressure Winds Precip Visibility


Weather for websites

WeatherForYou.com, LLC is not responsible for any damages or problems caused by this service. Current weather conditions are obtained from the closest station including government and personal stations which may have varying degrees of accuracy. Weather forecasts are derived from the NOAA NDFD. Like all things, this site belongs to Jesus Christ... He just trusts me to maintain it. If you have any questions or comments email webmaster@weatherforyou.com

Copyright © 2014, WeatherForYou.com LLC. All rights reserved.